Location: Unspecified
(27.5000°S, 0.0000°E)
Time: 02:32:59
(UTC+00:00)

Cosmos 1066 Rocket - Visible Passes

Search period start: 04 April 2026 00:00
Search period end: 14 April 2026 00:00
Orbit: 797 x 893 km, 81.2° (Epoch: 29 March)

Date Brightness Start Highest point End Pass type
(mag) Time Alt. Az. Time Alt. Az. Time Alt. Az.
4 Apr 6.5 04:01:02 10° SSE 04:05:41 24° ESE 04:10:13 10° NE visible
4 Apr 4.9 05:43:14 10° SSW 05:48:24 33° W 05:53:28 10° NNW visible
4 Apr 7.1 18:44:52 10° WNW 18:48:30 17° WSW 18:52:14 10° SSW visible
5 Apr 6.7 03:47:33 10° SSE 03:51:52 21° ESE 03:56:05 10° ENE visible
5 Apr 4.8 05:29:19 10° SSW 05:34:41 38° W 05:39:55 10° NNW visible
5 Apr 7.1 18:30:38 10° WNW 18:34:40 20° WSW 18:38:49 10° SSW visible
6 Apr 6.8 03:34:08 10° SSE 03:38:02 18° ESE 03:41:52 10° ENE visible
6 Apr 4.6 05:15:26 10° SSW 05:20:57 43° W 05:26:20 10° NNW visible
6 Apr 6.9 18:16:28 10° NW 18:20:50 23° WSW 18:25:21 10° SSW visible
7 Apr 6.9 03:20:48 10° SE 03:24:12 16° ESE 03:27:33 10° ENE visible
7 Apr 4.4 05:01:35 10° SSW 05:07:13 50° W 05:12:43 10° NNW visible
8 Apr 7.1 03:07:35 10° SE 03:10:22 13° ESE 03:13:05 10° E visible
8 Apr 4.3 04:47:45 10° SSW 04:53:29 57° W 04:59:03 10° N visible
9 Apr 7.2 02:54:39 10° SE 02:56:31 11° ESE 02:58:21 10° E visible
9 Apr 4.2 04:33:56 10° SSW 04:39:44 66° W 04:45:22 10° N visible
10 Apr 4.1 04:20:08 10° S 04:25:59 76° W 04:31:39 10° N visible
11 Apr 4.1 04:06:22 10° S 04:12:14 86° W 04:17:54 10° N visible
12 Apr 6.0 04:02:38 19° N 04:02:38 19° N 04:04:07 10° N visible
